Starlink 30959

operational
NORAD ID: 58442 Int'l Des: 2023-183 Owner: SPXS Country: US Constellation: starlink
LEOCIRCULAR

Über Starlink 30959

Beschreibung wird geladen...

Live-Position

3D-Globus wird geladen...

Nächste Überflüge

Höhenverlauf

Altitude vs Time

uPlot chart will show altitude changes over time

Zweizeiliger Elementsatz

1 58442U 23183F 25350.43687273 .00000474 00000-0 50159-4 0 9994
2 58442 43.0038 135.4601 0001109 270.6992 89.3724 15.02538288114190
Epoch: 16. Dez. 2025 • Age: 27 hours

Aktueller Status

Höhe 566.0 km
Geschwindigkeit 7.58 km/s
Subsatellitenpunkt -28.64°S, 166.16°E
Startdatum 28. Nov. 2023
Alter 2 years
Typ internet

Technische Details

Klassifizierung Payload
Masse 730.00 kg
Trockenmasse 700.00 kg
Gesamtmasse 730.00 kg
Länge 0.30 m
Durchmesser 4.10 m
Spannweite 29.00 m
Form Box + pan
Hersteller SPXS
Bus-Typ Starlink V2M
Phasenstatus In Orbit
Besitzer/Staat SPXS/US

Große Konstellationen

Loading constellations...